Flag for U.S.A. Weather past 2 weeks in Paramus, New Jersey, U.S.A.

Now
33 °F

Passing clouds.


Feels Like: 23 °F
Forecast: 30 / 38 °F
Wind: 15 mph from Northwest

Location: Teterboro Airport

Current Time: Dec 19, 2014 at 6:49:04 PM

Latest Report: Dec 19, 2014 at 5:51 PM


Visibility: 10 mi

Pressure: 30.12 "Hg

Humidity: 58%

Dew point: 20 °F

Location of ParamusLocation

Historic Weather in Paramus — Graph

°F

Paramus temperature yesterday

Maximum temperature yesterday: 41 °F (at 12:51 AM)
Minimum temperature yesterday: 36 °F (at 11:51 PM)
Average temperature yesterday: 39 °F

Past Weeks' High & Low Weather Summary

 TemperatureHumidityPressure
High53 °F (Dec 17, 12:51 PM)100% (Dec 9, 11:53 AM)30.70 "Hg (Dec 9, 11:53 AM)
Low24 °F (Dec 8, 6:51 AM)28% (Dec 7, 4:51 PM)29.58 "Hg (Dec 10, 1:58 PM)
Average38 °F67%30.05 "Hg
* Reported Dec 4 4:51 PM — Dec 19 4:51 PM, Paramus, Weather by CustomWeather, © 2014

Note: Actual official high and low records may vary slightly from our data, if they occured in-between our weather recording intervals... More about our weather records

Advertising

Paramus weather history for previous 24 hours

 ConditionsComfort  
Time TempWeatherWind HumidityBarometerVisibility
4:51 PM
Dec 19
34 °FPassing clouds.8 mph56%30.09 "Hg10 mi
3:51 PM35 °FSunny.15 mph54%30.07 "Hg10 mi
2:51 PM37 °FSunny.16 mph52%30.05 "Hg10 mi
1:51 PM38 °FPartly sunny.13 mph51%30.03 "Hg10 mi
12:51 PM37 °FScattered clouds.10 mph50%30.03 "Hg10 mi
11:51 AM36 °FPartly sunny.16 mph50%30.04 "Hg10 mi
10:51 AM35 °FOvercast.15 mph52%30.06 "Hg10 mi
9:51 AM35 °FOvercast.9 mph56%30.06 "Hg10 mi
8:51 AM35 °FOvercast.10 mph56%30.05 "Hg10 mi
7:51 AM36 °FOvercast.14 mph54%30.03 "Hg10 mi
6:51 AM37 °FOvercast.13 mph54%30.00 "Hg10 mi
5:51 AM37 °FOvercast.8 mph54%29.98 "Hg10 mi
4:51 AM37 °FOvercast.8 mph57%29.97 "Hg10 mi
3:51 AM36 °FPassing clouds.9 mph62%29.97 "Hg10 mi
2:51 AM36 °FPassing clouds.8 mph62%29.97 "Hg10 mi
1:51 AM37 °FOvercast.12 mph62%29.96 "Hg10 mi
12:51 AM37 °FOvercast.7 mph65%29.96 "Hg10 mi
11:51 PM
Dec 18
36 °FPassing clouds.3 mph67%29.96 "Hg10 mi
10:51 PM37 °FClear.6 mph65%29.97 "Hg10 mi
9:51 PM37 °FPassing clouds.7 mph65%29.98 "Hg10 mi
8:51 PM37 °FClear.10 mph65%29.96 "Hg10 mi
7:51 PM38 °FPassing clouds.7 mph63%29.97 "Hg10 mi
6:51 PM39 °FOvercast.8 mph60%29.97 "Hg10 mi
Weather by CustomWeather, © 2014

See weather overviewHow to use our weather pages